Terminal Aerodrome Forecast
Issued by NWS Cleveland, OH

Home | Current Version | Previous Version | Text Only | Print | Product List | Glossary On
Versions: 1 2 3 4 5 6 7 8 9 10 11 12 13 14 15 16 17 18 19 20
706
FTUS41 KCLE 181503 AAB
TAFCAK
TAF AMD
KCAK 181503Z 1815/1912 27010KT 2SM -DZ BR OVC007
      TEMPO 1815/1818 4SM BR OVC010
     FM181800 27010KT 5SM BR OVC008
     FM182000 26008KT P6SM OVC009
     FM190100 24005KT P6SM OVC007=

USA.gov is the U.S. government's official web portal to all federal, state and local government web resources and services.